Eau Claire, WI

6:55 AM CST on January 22, 2018 (GMT -0600)
Chippewa Valley Regional

Weather History for KEAU - September, 2012

Change the Weather History Date:

Tuesday, September 11, 2012

  Actual Average Record
Temperature  
Mean Temperature 76 °F 62 °F  
Max Temperature 90 °F 74 °F 98 °F (1931)
Min Temperature 61 °F 51 °F 31 °F (1917)
Degree Days  
Heating Degree Days 0 5  
Month to date heating degree days 17 37  
Since 1 July heating degree days 42 76  
Cooling Degree Days 11 2  
Month to date cooling degree days 53 29  
Year to date cooling degree days 826 556  
Growing Degree Days 26 (Base 50)    
Moisture  
Dew Point 51 °F    
Average Humidity 45    
Maximum Humidity 65    
Minimum Humidity 24    
Precipitation  
Precipitation 0.00 in 0.13 in 4.00 in (1939)
Month to date precipitation 0.69 1.39  
Year to date precipitation 19.85 23.51  
Snow  
Snow 0.00 in 0.00 in 0.00 in ()
Month to date snowfall 0.0 0.0  
Since 1 July snowfall 0.0 0.0  
Since 1 September snowfall 0.0 0.0  
Snow Depth 0.00 in    
Sea Level Pressure  
Sea Level Pressure 29.84 in    
Wind  
Wind Speed 13 mph (South)    
Max Wind Speed 26 mph    
Max Gust Speed 33 mph    
Visibility 10 miles    
Events      
T = Trace of Precipitation, MM = Missing Value Source: NWS Daily Summary

Daily Weather History Graph

Daily Weather History Graph

Search for Another Location

Airport or City:

Trip Planner

Search our weather history database for the weather conditions in past years. The results will help you decide how hot, cold, wet, or windy it might be!

Date:

Astronomy

Sep. 11, 2012 Rise Set
Actual Time 6:40 AM CDT 7:23 PM CDT
Civil Twilight 6:10 AM CDT 7:52 PM CDT
Nautical Twilight 5:35 AM CDT 8:27 PM CDT
Astronomical Twilight 4:59 AM CDT 9:04 PM CDT
Moon 1:48 AM CDT (9/11) 4:42 PM CDT (9/11)
Length of Visible Light 13h 41m
Length of Day
12h 42m
Waning Crescent, 21% of the Moon is Illuminated
Sep 11
Waning Crescent
Sep 15
New
Sep 22
First Quarter
Sep 29
Full
Oct 8
Last Quarter

Hourly Weather History & Observations

Time (CDT) Temp. Dew Point Humidity Pressure Visibility Wind Dir Wind Speed Gust Speed Precip Events Conditions
12:56 AM 64.9 °F 48.0 °F 54% 29.91 in 10.0 mi South 9.2 mph - N/A   Clear
1:56 AM 63.0 °F 48.9 °F 60% 29.90 in 10.0 mi SSE 5.8 mph - N/A   Clear
2:56 AM 62.1 °F 48.9 °F 62% 29.89 in 10.0 mi South 6.9 mph - N/A   Clear
3:56 AM 63.0 °F 50.0 °F 63% 29.88 in 10.0 mi South 6.9 mph - N/A   Clear
4:56 AM 62.1 °F 50.0 °F 65% 29.88 in 10.0 mi South 5.8 mph - N/A   Clear
5:56 AM 62.1 °F 50.0 °F 65% 29.87 in 10.0 mi South 9.2 mph - N/A   Clear
6:56 AM 63.0 °F 50.0 °F 63% 29.86 in 10.0 mi South 9.2 mph - N/A   Clear
7:56 AM 66.0 °F 51.1 °F 59% 29.86 in 10.0 mi South 10.4 mph - N/A   Clear
8:56 AM 70.0 °F 52.0 °F 53% 29.86 in 10.0 mi SSW 10.4 mph - N/A   Clear
9:56 AM 73.0 °F 51.1 °F 46% 29.86 in 10.0 mi SSW 16.1 mph 20.7 mph N/A   Clear
10:56 AM 77.0 °F 51.1 °F 40% 29.87 in 10.0 mi SW 17.3 mph 26.5 mph N/A   Clear
11:56 AM 82.0 °F 51.1 °F 34% 29.85 in 10.0 mi SSW 12.7 mph 20.7 mph N/A   Clear
12:56 PM 84.9 °F 51.1 °F 31% 29.83 in 10.0 mi SSW 17.3 mph 23.0 mph N/A   Clear
1:56 PM 88.0 °F 51.1 °F 28% 29.81 in 10.0 mi SSW 18.4 mph 27.6 mph N/A   Clear
2:56 PM 89.1 °F 51.1 °F 27% 29.79 in 10.0 mi South 19.6 mph 27.6 mph N/A   Clear
3:56 PM 88.0 °F 52.0 °F 29% 29.78 in 10.0 mi South 23.0 mph 27.6 mph N/A   Clear
4:56 PM 89.1 °F 51.1 °F 27% 29.77 in 10.0 mi South 15.0 mph 32.2 mph N/A   Clear
5:56 PM 89.1 °F 48.0 °F 24% 29.77 in 10.0 mi South 23.0 mph 31.1 mph N/A   Clear
6:56 PM 86.0 °F 48.0 °F 27% 29.77 in 10.0 mi South 18.4 mph 29.9 mph N/A   Clear
7:56 PM 82.0 °F 48.9 °F 31% 29.78 in 10.0 mi South 15.0 mph - N/A   Clear
8:56 PM 79.0 °F 52.0 °F 39% 29.82 in 10.0 mi South 9.2 mph - N/A   Clear
9:56 PM 78.1 °F 54.0 °F 43% 29.83 in 10.0 mi South 12.7 mph - N/A   Clear
10:56 PM 78.1 °F 53.1 °F 42% 29.84 in 10.0 mi South 11.5 mph - N/A   Clear
11:56 PM 78.1 °F 52.0 °F 40% 29.84 in 10.0 mi SSW 9.2 mph - N/A   Clear